Weather History for PATO - March, 2013

Change the Weather History Date:

Friday, March 1, 2013

  Actual Average Record
Temperature  
Mean Temperature 32 °F -  
Max Temperature 37 °F - - ()
Min Temperature 27 °F - - ()
Degree Days  
Heating Degree Days 33    
Moisture  
Dew Point 30 °F    
Average Humidity 95    
Maximum Humidity 100    
Minimum Humidity 70    
Precipitation  
Precipitation 0.07 in - - ()
Sea Level Pressure  
Sea Level Pressure 29.68 in    
Wind  
Wind Speed 3 mph (WSW)    
Max Wind Speed 16 mph    
Max Gust Speed 29 mph    
Visibility 5 miles    
Events Fog , Rain , Snow    
T = Trace of Precipitation, MM = Missing Value Source: NWS Daily Summary

Daily Weather History Graph

Daily Weather History Graph

Search for Another Location

Airport or City:

Trip Planner

Search our weather history database for the weather conditions in past years. The results will help you decide how hot, cold, wet, or windy it might be!

Date:

Astronomy

Mar. 01, 2013 Rise Set
Actual Time 7:53 AM AKST 6:22 PM AKST
Civil Twilight 7:10 AM AKST 7:05 PM AKST
Nautical Twilight 6:21 AM AKST 7:54 PM AKST
Astronomical Twilight 5:31 AM AKST 8:45 PM AKST
Moon No Moon Rise 8:26 AM AKST (3/1)
Length of Visible Light 11h 54m
Length of Day
10h 28m
Waning Gibbous, 82% of the Moon is Illuminated
Mar 1
Waning Gibbous
Mar 4
Last Quarter
Mar 11
New
Mar 19
First Quarter
Mar 27
Full

Hourly Weather History & Observations

Time (AKST) Temp. Windchill Dew Point Humidity Pressure Visibility Wind Dir Wind Speed Gust Speed Precip Events Conditions
12:15 AM 30.0 °F 26.5 °F 30.0 °F 100% 29.38 in 3.0 mi West 3.5 mph - 0.00 in Snow Light Snow
12:25 AM 30.0 °F 26.5 °F 30.0 °F 100% 29.39 in 4.0 mi WSW 3.5 mph - 0.00 in Snow Light Snow
12:53 AM 28.0 °F 24.2 °F 28.0 °F 100% 29.39 in 9.0 mi West 3.5 mph - 0.00 in   Overcast
1:53 AM 27.0 °F 20.5 °F 27.0 °F 100% 29.41 in 9.0 mi West 5.8 mph - N/A   Clear
3:53 AM 28.9 °F 22.8 °F 28.0 °F 96% 29.46 in 10.0 mi WNW 5.8 mph - N/A   Overcast
4:53 AM 28.9 °F 25.2 °F 28.9 °F 100% 29.49 in 10.0 mi WNW 3.5 mph - N/A   Overcast
5:53 AM 28.0 °F 24.2 °F 27.0 °F 96% 29.51 in 10.0 mi WSW 3.5 mph - N/A   Mostly Cloudy
6:53 AM 27.0 °F - 27.0 °F 100% 29.53 in 10.0 mi Calm Calm - N/A   Overcast
7:53 AM 28.0 °F - 28.0 °F 100% 29.56 in 10.0 mi Calm Calm - N/A   Overcast
8:53 AM 28.9 °F - 28.9 °F 100% 29.59 in 5.0 mi Calm Calm - 0.00 in Snow Light Snow
9:06 AM 28.9 °F - 28.9 °F 100% 29.59 in 2.0 mi Calm Calm - 0.00 in Snow Light Snow
9:09 AM 28.9 °F - 28.9 °F 100% 29.59 in 1.8 mi Calm Calm - 0.00 in Snow Light Snow
9:29 AM 28.9 °F - 28.9 °F 100% 29.60 in 0.5 mi Calm Calm - 0.00 in Fog , Snow Snow
9:39 AM - - - N/A% 29.61 in 0.5 mi North - - 0.01 in   Unknown
9:53 AM - - - N/A% 29.62 in 0.8 mi North - - 0.02 in   Unknown
9:58 AM - - - N/A% 29.62 in 1.0 mi North - - 0.00 in   Unknown
10:20 AM - - - N/A% 29.63 in 0.8 mi North - - 0.00 in   Unknown
10:45 AM - - - N/A% 29.64 in 1.0 mi North - - 0.01 in   Unknown
10:53 AM - - - N/A% 29.64 in 1.0 mi North - - 0.01 in   Unknown
11:53 AM 30.0 °F - 30.0 °F 100% 29.68 in 1.2 mi Calm Calm - 0.01 in Snow Light Snow
12:05 PM 30.9 °F - 30.9 °F 100% 29.68 in 0.5 mi Calm Calm - 0.01 in Fog , Snow Snow
12:14 PM 30.9 °F - 30.9 °F 100% 29.68 in 0.5 mi Calm Calm - 0.02 in Fog , Snow Snow
12:30 PM 30.9 °F 27.5 °F 30.0 °F 96% 29.69 in 1.2 mi ESE 3.5 mph - 0.02 in Snow Light Snow
12:44 PM 30.9 °F - 30.0 °F 96% 29.70 in 3.0 mi Calm Calm - 0.02 in Snow Light Snow
12:53 PM 30.9 °F 27.5 °F 30.0 °F 96% 29.71 in 6.0 mi ESE 3.5 mph - 0.02 in Snow Light Snow
1:53 PM 32.0 °F - 32.0 °F 100% 29.74 in 9.0 mi Calm Calm - 0.00 in   Overcast
2:19 PM 33.1 °F 30.0 °F 32.0 °F 96% 29.75 in 10.0 mi West 3.5 mph - N/A   Overcast
2:37 PM 33.1 °F - 32.0 °F 96% 29.75 in 1.8 mi Calm Calm - 0.00 in Snow Light Snow
2:41 PM 33.1 °F - 33.1 °F 100% 29.75 in 2.0 mi Calm Calm - 0.00 in Snow Light Snow
2:49 PM 32.0 °F 28.7 °F 32.0 °F 100% 29.76 in 1.5 mi Variable 3.5 mph - 0.00 in Snow Light Snow
2:50 PM 32.0 °F 28.7 °F 32.0 °F 100% 29.76 in 1.5 mi SSW 3.5 mph - 0.00 in Snow Light Snow
3:12 PM 32.0 °F 26.4 °F 30.9 °F 96% 29.76 in 2.5 mi NW 5.8 mph - 0.00 in Snow Light Snow
3:20 PM 32.0 °F 27.5 °F 32.0 °F 100% 29.76 in 1.0 mi WNW 4.6 mph - 0.01 in Snow Light Snow
3:31 PM 32.0 °F 25.6 °F 32.0 °F 100% 29.77 in 3.0 mi WNW 6.9 mph - 0.01 in Snow Light Snow
3:33 PM 32.0 °F 25.6 °F 32.0 °F 100% 29.76 in 4.0 mi West 6.9 mph - 0.01 in Snow Light Snow
3:41 PM 32.0 °F - 32.0 °F 100% 29.77 in 7.0 mi Calm Calm - 0.01 in Snow Light Snow
3:53 PM 32.0 °F - 32.0 °F 100% 29.78 in 6.0 mi Calm Calm - 0.01 in Snow Light Snow
4:06 PM 32.0 °F 25.6 °F 32.0 °F 100% 29.78 in 9.0 mi Variable 6.9 mph - 0.00 in   Overcast
4:53 PM 36.0 °F 26.3 °F 30.0 °F 79% 29.80 in 7.0 mi East 16.1 mph 28.8 mph 0.00 in Rain Light Rain
5:53 PM 37.0 °F 27.7 °F 28.0 °F 70% 29.82 in 10.0 mi East 16.1 mph 25.3 mph 0.00 in   Mostly Cloudy
6:53 PM 36.0 °F 28.0 °F 27.0 °F 70% 29.85 in 10.0 mi East 11.5 mph 21.9 mph N/A   Scattered Clouds
7:53 PM 35.1 °F 27.4 °F 28.9 °F 78% 29.88 in 8.0 mi ENE 10.4 mph 24.2 mph 0.00 in Snow Light Snow
8:53 PM 35.1 °F 31.0 °F 28.9 °F 78% 29.90 in 10.0 mi Variable 4.6 mph - 0.00 in   Overcast
9:53 PM 33.1 °F 27.7 °F 30.9 °F 92% 29.91 in 10.0 mi SSE 5.8 mph - N/A   Overcast
10:53 PM 34.0 °F 28.0 °F 28.9 °F 82% 29.92 in 10.0 mi SSE 6.9 mph - N/A   Overcast
11:53 PM 34.0 °F 28.8 °F 30.9 °F 89% 29.94 in 10.0 mi Variable 5.8 mph - N/A   Overcast